Terug naar catalogus

GAOFEN 12-05

ActiefWetenschapSSO
NORAD 61571·PAYLOAD·🇨🇳 China

Gelanceerd Oct 15, 2024 vanaf Jiuquan Satellite Launch Center

Loading…

Volgende Passages (komende 24 uur)

TLE

VersSource: Space-Track

Epoch: Sep 14, 2026, 22:18 UTC

1 61571U 24186A   26257.92952572  .00000280  00000-0  42860-4 0  9998
2 61571  97.9131 264.8925 0001603  57.1758 302.9609 14.81015925102627

Volg GAOFEN 12-05 in realtime met AllMySat

Download on the App Store